Previsão horária em Senkovschina

Hoje, 24 Julho, Sábado

Tempo Temperatura Precipitação Vento Pressão Humidade
00:00 +15°C° 0 mm 2 m/s 745 mmHg 90%
01:00 +14°C° 0 mm 2 m/s 745 mmHg 89%
02:00 +13°C° 0 mm 2 m/s 745 mmHg 89%
03:00 +12°C° 0 mm 2 m/s 745 mmHg 89%
04:00 +12°C° 0 mm 2 m/s 745 mmHg 90%
05:00 +12°C° 0 mm 2 m/s 745 mmHg 91%
06:00 +13°C° 0 mm 2 m/s 745 mmHg 85%
07:00 +15°C° 0 mm 2 m/s 745 mmHg 79%
08:00 +17°C° 0 mm 2 m/s 746 mmHg 73%
09:00 +18°C° 0 mm 2 m/s 746 mmHg 67%
10:00 +20°C° 0 mm 2 m/s 746 mmHg 60%
11:00 +22°C° 0 mm 1 m/s 746 mmHg 54%
12:00 +23°C° 0 mm 1 m/s 746 mmHg 51%
13:00 +24°C° 0 mm 1 m/s 746 mmHg 48%
14:00 +25°C° 0 mm 1 m/s 746 mmHg 45%
15:00 +25°C° 0 mm 1 m/s 746 mmHg 45%
16:00 +25°C° 0 mm 1 m/s 746 mmHg 46%
17:00 +25°C° 0 mm 1 m/s 746 mmHg 46%
18:00 +23°C° 0 mm 1 m/s 746 mmHg 53%
19:00 +21°C° 0 mm 1 m/s 746 mmHg 60%
20:00 +19°C° 0 mm 1 m/s 746 mmHg 67%
21:00 +18°C° 0 mm 1 m/s 746 mmHg 69%
22:00 +15°C° 0 mm 0 m/s 747 mmHg 71%
23:00 +14°C° 0 mm 0 m/s 747 mmHg 73%

Amanhã, 25 Julho, Domingo

Tempo Temperatura Precipitação Vento Pressão Humidade
00:00 +14°C° 0 mm 0 m/s 747 mmHg 75%
01:00 +14°C° 0 mm 0 m/s 747 mmHg 77%
02:00 +13°C° 0 mm 0 m/s 747 mmHg 78%
03:00 +13°C° 0 mm 0 m/s 747 mmHg 78%
04:00 +13°C° 0 mm 0 m/s 748 mmHg 78%
05:00 +13°C° 0 mm 0 m/s 748 mmHg 79%
06:00 +15°C° 0 mm 0 m/s 748 mmHg 72%
07:00 +17°C° 0 mm 0 m/s 748 mmHg 66%
08:00 +20°C° 0 mm 0 m/s 748 mmHg 60%
09:00 +21°C° 0 mm 0 m/s 748 mmHg 56%
10:00 +23°C° 0 mm 0 m/s 748 mmHg 51%
11:00 +24°C° 0 mm 0 m/s 749 mmHg 47%
12:00 +26°C° 0 mm 1 m/s 749 mmHg 46%
13:00 +27°C° 0 mm 1 m/s 748 mmHg 44%
14:00 +27°C° 0 mm 1 m/s 748 mmHg 43%
15:00 +27°C° 0 mm 1 m/s 748 mmHg 47%
16:00 +26°C° 0 mm 1 m/s 748 mmHg 51%
17:00 +26°C° 0 mm 1 m/s 748 mmHg 55%
18:00 +25°C° 0 mm 1 m/s 748 mmHg 57%
19:00 +24°C° 0 mm 1 m/s 749 mmHg 58%
20:00 +23°C° 0 mm 1 m/s 749 mmHg 60%
21:00 +23°C° 0 mm 1 m/s 749 mmHg 60%
22:00 +22°C° 0 mm 1 m/s 749 mmHg 61%
23:00 +22°C° 0 mm 1 m/s 749 mmHg 61%

Depois de amanhã, 26 Julho, Segunda-feira

Tempo Temperatura Precipitação Vento Pressão Humidade
00:00 +21°C° 0 mm 1 m/s 749 mmHg 63%
01:00 +21°C° 0 mm 1 m/s 749 mmHg 65%
02:00 +20°C° 0 mm 2 m/s 749 mmHg 67%
03:00 +19°C° 0 mm 2 m/s 749 mmHg 71%
04:00 +18°C° 0 mm 2 m/s 750 mmHg 75%
05:00 +17°C° 0 mm 2 m/s 750 mmHg 79%
06:00 +19°C° 0 mm 2 m/s 750 mmHg 73%
07:00 +21°C° 0 mm 2 m/s 750 mmHg 67%
08:00 +24°C° 0 mm 2 m/s 750 mmHg 62%
09:00 +25°C° 0 mm 2 m/s 750 mmHg 57%
10:00 +27°C° 0 mm 2 m/s 750 mmHg 52%
11:00 +28°C° 0 mm 3 m/s 750 mmHg 47%
12:00 +28°C° 0 mm 3 m/s 750 mmHg 47%
13:00 +28°C° 0 mm 2 m/s 750 mmHg 47%
14:00 +28°C° 0 mm 2 m/s 750 mmHg 47%
15:00 +28°C° 0 mm 2 m/s 749 mmHg 48%
16:00 +28°C° 0 mm 3 m/s 749 mmHg 49%
17:00 +27°C° 0 mm 3 m/s 749 mmHg 51%
18:00 +26°C° 0 mm 3 m/s 749 mmHg 56%
19:00 +24°C° 0 mm 2 m/s 749 mmHg 61%
20:00 +23°C° 0 mm 2 m/s 749 mmHg 66%
21:00 +21°C° 0 mm 2 m/s 749 mmHg 68%
22:00 +20°C° 0 mm 3 m/s 749 mmHg 69%
23:00 +20°C° 0 mm 3 m/s 749 mmHg 70%

27 Julho, Terça-feira

Tempo Temperatura Precipitação Vento Pressão Humidade
00:00 +19°C° 0 mm 3 m/s 749 mmHg 72%
01:00 +18°C° 0 mm 3 m/s 749 mmHg 75%
02:00 +18°C° 0 mm 3 m/s 749 mmHg 77%
03:00 +18°C° 0 mm 3 m/s 749 mmHg 78%
04:00 +17°C° 0 mm 3 m/s 749 mmHg 79%
05:00 +17°C° 0 mm 3 m/s 749 mmHg 79%
06:00 +19°C° 0 mm 3 m/s 749 mmHg 74%
07:00 +21°C° 0 mm 4 m/s 749 mmHg 68%
08:00 +23°C° 0 mm 4 m/s 748 mmHg 62%
09:00 +26°C° 0 mm 5 m/s 748 mmHg 57%
10:00 +27°C° 0 mm 5 m/s 748 mmHg 51%
11:00 +29°C° 0 mm 5 m/s 748 mmHg 46%
12:00 +29°C° 0 mm 5 m/s 748 mmHg 45%
13:00 +29°C° 0 mm 5 m/s 748 mmHg 44%
14:00 +30°C° 0 mm 5 m/s 747 mmHg 44%
15:00 +29°C° 0 mm 5 m/s 747 mmHg 46%
16:00 +29°C° 0 mm 4 m/s 747 mmHg 49%
17:00 +28°C° 0 mm 3 m/s 746 mmHg 52%
18:00 +26°C° 0.2 mm 3 m/s 746 mmHg 59%
19:00 +25°C° 0.2 mm 3 m/s 746 mmHg 67%
20:00 +22°C° 0.2 mm 4 m/s 745 mmHg 74%
21:00 +21°C° 0.6 mm 3 m/s 745 mmHg 79%
22:00 +20°C° 0.6 mm 3 m/s 745 mmHg 83%
23:00 +19°C° 0.6 mm 3 m/s 745 mmHg 88%

28 Julho, Quarta-feira

Tempo Temperatura Precipitação Vento Pressão Humidade
00:00 +19°C° 1.1 mm 3 m/s 745 mmHg 90%
01:00 +19°C° 1.1 mm 2 m/s 745 mmHg 93%
02:00 +20°C° 1.1 mm 1 m/s 745 mmHg 96%
03:00 +20°C° 1.5 mm 1 m/s 744 mmHg 97%
04:00 +19°C° 1.5 mm 2 m/s 744 mmHg 97%
05:00 +19°C° 1.5 mm 2 m/s 744 mmHg 98%
06:00 +19°C° 1.5 mm 2 m/s 744 mmHg 98%
07:00 +19°C° 1.5 mm 2 m/s 744 mmHg 97%
08:00 +20°C° 1.5 mm 2 m/s 744 mmHg 96%
09:00 +20°C° 0.5 mm 2 m/s 744 mmHg 93%
10:00 +21°C° 0.5 mm 2 m/s 743 mmHg 90%
11:00 +23°C° 0.5 mm 2 m/s 743 mmHg 87%
12:00 +24°C° 0.2 mm 2 m/s 743 mmHg 81%
13:00 +25°C° 0.2 mm 3 m/s 743 mmHg 74%
14:00 +26°C° 0.2 mm 3 m/s 743 mmHg 68%
15:00 +27°C° 0.1 mm 3 m/s 743 mmHg 66%
16:00 +27°C° 0.1 mm 2 m/s 743 mmHg 65%
17:00 +27°C° 0.1 mm 2 m/s 743 mmHg 64%
18:00 +26°C° 0.1 mm 1 m/s 743 mmHg 69%
19:00 +24°C° 0.1 mm 1 m/s 742 mmHg 74%
20:00 +21°C° 0.1 mm 0 m/s 742 mmHg 79%
21:00 +22°C° 0 mm 1 m/s 742 mmHg 82%
22:00 +21°C° 0 mm 1 m/s 742 mmHg 84%
23:00 +20°C° 0 mm 2 m/s 742 mmHg 86%

29 Julho, Quinta-feira

Tempo Temperatura Precipitação Vento Pressão Humidade
00:00 +19°C° 0 mm 2 m/s 742 mmHg 87%
01:00 +19°C° 0 mm 2 m/s 742 mmHg 87%
02:00 +18°C° 0 mm 2 m/s 742 mmHg 87%
03:00 +18°C° 0 mm 2 m/s 742 mmHg 87%
04:00 +18°C° 0 mm 2 m/s 742 mmHg 87%
05:00 +18°C° 0 mm 2 m/s 742 mmHg 87%
06:00 +20°C° 0 mm 2 m/s 742 mmHg 83%
07:00 +21°C° 0 mm 3 m/s 742 mmHg 79%
08:00 +24°C° 0 mm 3 m/s 742 mmHg 75%
09:00 +25°C° 0 mm 4 m/s 743 mmHg 70%
10:00 +26°C° 0 mm 4 m/s 743 mmHg 65%
11:00 +27°C° 0 mm 5 m/s 743 mmHg 60%
12:00 +28°C° 0 mm 5 m/s 743 mmHg 57%
13:00 +28°C° 0 mm 5 m/s 743 mmHg 54%
14:00 +29°C° 0 mm 5 m/s 743 mmHg 51%
15:00 +28°C° 0 mm 5 m/s 743 mmHg 52%
16:00 +27°C° 0 mm 4 m/s 743 mmHg 54%
17:00 +27°C° 0 mm 4 m/s 743 mmHg 55%
18:00 +25°C° 0 mm 3 m/s 743 mmHg 61%
19:00 +22°C° 0 mm 3 m/s 743 mmHg 66%
20:00 +21°C° 0 mm 2 m/s 743 mmHg 71%
21:00 +20°C° 0 mm 2 m/s 743 mmHg 74%
22:00 +19°C° 0 mm 2 m/s 743 mmHg 76%
23:00 +18°C° 0 mm 2 m/s 744 mmHg 79%
Mostrar mais

Necessitamos do seu Consentimento

A Meteoprog e os seus Fornecedores de Serviços podem armazenar e aceder a dados pessoais como cookies, identificadores do dispositivo ou outras tecnologias semelhantes existentes no seu dispositivo e processar estes dados para personalizar conteúdos e anúncios, assim como funcionalidades nas redes sociais e análise de tráfego.

  • Armazenar e/ou aceder a informações no seu dispositivo

    Os cookies, identificadores do dispositivo ou outras informações podem ser armazenados ou acedidos no seu dispositivo, para os fins acima indicados.

  • Anúncios e conteúdos personalizados, medição de anúncios e conteúdos, dados sobre o público-alvo e desenvolvimento de produtos

    Os anúncios e os conteúdos podem ser personalizados com base num perfil. Podem ser adicionados dados adicionais para uma maior personalização dos anúncios e dos conteúdos. A eficácia dos anúncios e dos conteúdos pode ser medida. Podem ser obtidas informações sobre o público que visualizou os anúncios e os conteúdos. Estes dados podem ser usados para desenvolver ou melhorar sistemas, softwares ou a experiência do utilizador.

Ao clicar em "Eu concordo”, permitirá o uso de cookies, identificadores do dispositivo e web beacons mencionados ou outras tecnologias semelhantes. As configurações do navegador do seu dispositivo podem ser alteradas.

Para certos fins, podem ser invocados interesses legítimos ao invés de consentimento. Pode ler mais informação sobre este assunto na nossa Política de Privacidade e Cookies.